Location: Burleson Alternative School
(32.5290°N, 97.3406°W)
Time: 09:54:06
(UTC+00:00)

Vanguard 2 Rocket - Pass Details

Date: 15 November 2025
Orbit: 553 x 3287 km, 32.9° (Epoch: 07 December)

Event Time Altitude Azimuth Distance (km) Brightness Sun altitude
Rises 02:02:07 0° 270° (W) 2,781 10.5 -32.3°
Reaches altitude 10° 02:04:04 10° 271° (W) 1,974 9.5 -32.7°
Enters shadow 02:06:18 33° 273° (W) 1,145 7.8 -33.2°
